www.pogodaiklimat.ru

Погода и климат >> Архив погоды >> Чехия >> Хеб


ПОГОДА в Хебе

  • Прогноз погоды в Хебе
  • Монитор погоды в Хебе

АРХИВ ПОГОДЫ в Хебе

Время (UTC), дата Ветер
(напр.,м/с)
 
Видим.   Явления Облачность Т
(С)
Тd
(С)
f
(%)
Тe
(С)
Тes
(С)
Комфортность P
(гПа)
Po
(гПа)
Тmin
(С)
Tmax
(С)
R
(мм)
R24
(мм)
S
(см)
10 10.07 45 км 6/6 1320 м
[Sc]
+17.5 +5.4 45 1018.5 962.0
11 10.07 СЗ 3 45 км 4/4 1410 м
[Sc]
+17.6 +4.8 43 +18 +26 1018.1 961.6
12 10.07 нст 2 50 км 4/3 1500 м
[Sc Ci fib]
+19.8 +4.2 36 +21 +32 комфорт 1017.2 961.2
13 10.07 СЗ 3 50 км 4/1 1500 м
[Sc Ci fib]
+20.2 +3.7 34 +21 +31 комфорт 1016.6 960.7
14 10.07 СЗ 3 50 км 5/3 1500 м
[Sc Ci fib]
+20.9 +3.3 31 +22 +28 комфорт 1016.0 960.2
15 10.07 СЗ 3 50 км 3/1 1500 м
[Sc Ci fib]
+21.3 +3.6 31 +21 +27 комфорт 1015.6 959.9
16 10.07 35 км н/о +22.3 +4.2 31 1015.0 959.5
17 10.07 С 4 35 км н/о +20.3 +4.0 34 +21 +21 комфорт 1015.5 959.6
18 10.07 С 3 50 км 6/1 1500 м
[Sc Ac cast Ci sp]
+19.1 +3.7 36 +20 +20 1015.7 959.6 +22.5
19 10.07 С 1 50 км 6/1 1500 м
[Sc Ac cast Ci sp]
+17.1 +4.4 43 +18 +18 1016.2 959.7
20 10.07 40 км 6/0
[Ac As Ci fib]
+15.9 +4.6 47 1016.8 960.1
21 10.07 СЗ 1 35 км {дымка} н/о +15.6 +5.2 50 +16 +16 1017.0 960.2
22 10.07 СЗ 1 35 км н/о +15.4 +5.2 51 +16 +16 1016.9 960.1
23 10.07 ЮЗ 2 35 км н/о +14.5 +5.4 54 +14 +14 1016.9 959.9
00 11.07 нст 1 35 км {дымка} н/о +13.2 +5.6 60 +14 +14 1016.7 959.5
01 11.07 штиль 0 35 км н/о +11.9 +5.5 65 +12 +12 1016.8 959.3
02 11.07 СЗ 1 35 км н/о +12.2 +5.9 65 +12 +12 1016.0 958.6
03 11.07 нст 1 35 км {дымка} н/о +12.1 +6.6 69 +12 +12 1015.9 958.5
04 11.07 35 км н/о +12.8 +6.6 66 1015.9 958.6
05 11.07 30 км слаб. ливневой дождь н/о +12.3 +8.5 78 1016.0 958.7
06 11.07 нст 1 35 км слаб. дождь 10/3 1440 м
[Sc Ac As]
+14.0 +8.6 70 +14 +15 1015.7 958.7 +11.9 0.2
07 11.07 Ю 2 40 км в посл. час дождь 10/9 1140 м
[Sc Ac As]
+14.1 +8.4 69 +14 +14 1015.5 958.5
08 11.07 35 км 10/9 1110 м
[Sc Ac As]
+16.8 +9.3 61 1014.8 958.4
09 11.07 нст 2 35 км {дождь} 10/9 660 м
[Sc Ac As]
+16.9 +8.9 59 +17 +18 1014.8 958.4
10 11.07 З 2 40 км в посл. час дождь 10/10 660 м
[Sc]
+18.0 +9.3 57 +19 +19 1014.1 958.0
11 11.07 40 км 9/8 1140 м
[Sc Ac As]
+19.3 +9.5 53 1013.5 957.6
12 11.07 ЮЗ 3 40 км {дождь} 10/8 1300 м
[Sc Ac As]
+20.7 +8.6 46 +22 +23 комфорт 1012.7 957.1 0.0
13 11.07 ЮЗ 3 40 км 10/8 1500 м
[Sc Ac As]
+21.3 +7.8 42 +22 +23 комфорт 1012.1 956.7
14 11.07 40 км 10/10 1500 м
[Sc]
+21.0 +7.2 41 1012.0 956.5
15 11.07 ЮЗ 3 40 км 10/10 1500 м
[Sc]
+20.6 +7.5 43 +22 +22 комфорт 1011.7 956.2
16 11.07 З 2 35 км н/о +19.9 +9.6 51 +22 +22 комфорт 1012.0 956.3
17 11.07 З 3 35 км н/о +18.4 +10.4 60 +19 +19 1012.6 956.6
18 11.07 З 4 35 км 10/5 1500 м
[Sc Ac As]
+16.5 +11.1 70 +16 +16 1013.4 957.1 +21.9 0.0
19 11.07 18 км слаб. дождь 10/10 480 м
[Sc]
+14.8 +11.7 82 1014.0 957.3
20 11.07 22 км в посл. час дождь 10/10 630 м
[Sc]
+14.5 +12.2 86 1014.1 957.4
21 11.07 нст 1 17 км слаб. ливневой дождь {морось} н/о +13.9 +12.8 93 +14 +14 1014.4 957.5
22 11.07 ЮЗ 1 14 км слаб. дождь н/о +13.9 +12.9 94 +14 +14 1014.1 957.3
23 11.07 ЮЗ 1 9000 м слаб. дождь н/о +13.8 +13.0 95 +14 +14 1013.9 957.1
00 12.07 ЮЗ 1 17 км слаб. дождь {морось} н/о +13.5 +12.9 96 +14 +14 1013.6 956.7 3
01 12.07 ЮЗ 1 26 км в посл. час дождь н/о +13.4 +12.8 96 +13 +13 1013.4 956.5
02 12.07 22 км слаб. ливневой дождь н/о +13.5 +12.8 96 1013.2 956.3
03 12.07 нст 1 11 км {ливн. осадки, дождь} н/о +13.3 +12.7 96 +13 +13 1013.0 956.1
04 12.07 Ю 2 8000 м дымка н/о +13.2 +12.6 96 +12 +12 1013.2 956.3
05 12.07 ЮЗ 1 6000 м дымка н/о +13.6 +12.9 96 +14 +14 1013.0 956.2
06 12.07 нст 2 7000 м дымка 9/9 500 м
[Sc]
+14.8 +13.3 91 +14 +15 1012.8 956.2 +13.1 3
07 12.07 10 км 9/9 330 м
[Sc]
+16.1 +13.6 85 1012.4 956.1
08 12.07 12 км 8/8 400 м
[Cu med, cong Ci fib]
+18.4 +12.8 70 1011.8 955.9
09 12.07 нст 2 15 км 8/6 600 м
[Cb calv Ac trans Ci fib]
+19.0 +13.5 70 +21 +25 комфорт 1011.6 955.9
10 12.07 18 км 6/6 900 м
[Cb calv Ci fib]
+19.4 +11.9 62 1011.6 955.9
11 12.07 З 3 22 км 6/6 1230 м
[Cu med, cong Ci fib]
+23.1 +11.6 48 +25 +31 комфорт 1009.9 955.0
12 12.07 З 3 24 км 8/5 1300 м
[Cb calv Ci fib]
+22.8 +11.3 48 +25 +31 комфорт 1009.8 954.8
13 12.07 З 4 25 км 9/6 1440 м
[Cb calv Ac cuf Ci fib]
+23.0 +9.2 41 +24 +27 комфорт 1009.6 954.6
14 12.07 ЮЗ 3 12 км гроза, ливневой дождь 9/8 1200 м
[Cb cap Ac cuf]
+18.9 +13.6 71 +20 +21 1010.3 954.6
15 12.07 ЮЗ 3
{11}
20 км в посл. час гроза {ливн. осадки} 9/8 1200 м
[Cb cap Ac cuf]
+19.4 +11.5 60 +21 +22 комфорт 1010.0 954.4
16 12.07 12 км гроза, ливневой дождь 9/8 1500 м
[Cb cap Ac cuf]
+16.2 +13.0 81 1011.0 954.8
17 12.07 11 км гроза, ливневой дождь 9/8 750 м
[Cb cap Ac cuf]
+13.1 +12.5 96 1011.7 954.8
18 12.07 СЗ 5-11
{11}
2000 м гроза, ливневой дождь 10/9 660 м
[Cb cap Ac cuf]
+14.0 +12.1 88 +12 +12 1013.0 956.2 +24.8 8
19 12.07 22 км слаб. ливневой дождь {гроза} 9/3 660 м
[Cb cap Ac cuf]
+13.0 +12.7 98 1011.6 954.7
20 12.07 З 1 20 км в посл. час ливневой дождь 9/3 1410 м
[Cu med, cong Ac As Ci sp]
+13.0 +12.5 97 +13 +13 1011.9 955.0
21 12.07 нст 1 2600 м дымка {гроза, ливн. осадки} н/о +12.0 +11.6 97 +12 +12 1011.9 954.8
22 12.07 5000 м дождь н/о +12.8 +12.5 98 1011.7 954.8
23 12.07 1700 м в посл. час дождь {ливн. осадки} н/о +12.2 +12.0 99 1012.0 954.9
00 13.07 ЮЗ 1 6000 м слаб. дождь {гроза} н/о +12.6 +12.2 97 +12 +12 1012.1 955.1 6
01 13.07 12 км в посл. час дождь {ливн. осадки} н/о +12.6 +12.1 97 1012.0 955.0
02 13.07 З 1 12 км н/о +12.8 +12.2 96 +13 +13 1012.0 955.1
03 13.07 ЮЗ 1 18 км {ливн. осадки, дождь} н/о +12.9 +11.9 94 +13 +13 1011.9 955.0
04 13.07 15 км н/о +13.0 +12.2 95 1012.3 955.4
05 13.07 17 км слаб. ливневой дождь н/о +13.0 +12.2 95 1012.6 955.7
06 13.07 нст 2 5000 м слаб. дождь 10/10 150 м
[Frnb]
+12.9 +12.3 96 +12 +12 1013.2 956.2 +11.9 7
07 13.07 10 км в посл. час дождь 10/10 210 м
[Frnb]
+13.4 +12.8 96 1013.7 956.8
08 13.07 8000 м слаб. дождь 10/10 180 м
[Frnb]
+13.6 +12.9 96 1014.0 957.1
09 13.07 СЗ 3 14 км в посл. час ливневой дождь 9/5 300 м
[Cu med, cong Ac As]
+14.7 +12.9 89 +14 +16 1014.3 957.6
10 13.07 23 км 9/8 450 м
[Cu med, cong Ac As]
+16.5 +12.5 77 1013.8 957.5
11 13.07 З 3 25 км 9/6 540 м
[Cu med, cong Ac As]
+18.0 +12.2 69 +18 +21 1013.5 957.5
12 13.07 З 3 10 км осадки на расстоянии {ливн. осадки} 9/6 720 м
[Cb calv Ac lent]
+17.5 +12.6 73 +18 +20 1013.7 957.6 3
13 13.07 СЗ 4 12 км в посл. час гроза {ливн. осадки} 9/8 720 м
[Cb cap Ac As]
+16.4 +11.6 73 +16 +17 1014.3 957.9
14 13.07 40 км 6/5 630 м
[Cu med, cong Ac As]
+17.2 +13.4 78 1013.8 957.6
15 13.07 СЗ 4 40 км {гроза, ливн. осадки} 8/6 900 м
[Cu med, cong Ac As]
+19.8 +11.7 60 +21 +23 комфорт 1013.1 957.4
16 13.07 СЗ 4 35 км н/о +19.6 +10.7 56 +21 +21 комфорт 1013.3 957.5
17 13.07 С 4 35 км н/о +16.2 +11.9 76 +15 +15 1014.7 958.2
18 13.07 нст 2 15 км слаб. ливневой дождь 9/8 900 м
[Cu med, cong Ac As]
+14.9 +13.0 88 +15 +15 1015.1 958.4 +20.8 4
19 13.07 25 км в посл. час ливневой дождь 9/8 900 м
[Cu Sc Ac As]
+14.6 +13.6 94 1015.4 958.6
20 13.07 С 1 25 км 9/8 800 м
[Cu Sc Ac As]
+14.7 +13.9 95 +15 +15 1016.0 959.2
21 13.07 З 1 25 км {ливн. осадки} н/о +14.5 +13.8 96 +15 +15 1016.4 959.6
22 13.07 35 км слаб. ливневой дождь н/о +14.2 +12.8 91 1016.7 959.8
23 13.07 25 км в посл. час дождь {ливн. осадки} н/о +12.7 +12.2 97 1016.9 959.7
00 14.07 нст 1 15 км слаб. дождь {морось} н/о +12.6 +11.9 95 +13 +13 1016.7 959.4 1
01 14.07 35 км в посл. час дождь н/о +12.2 +11.6 96 1016.6 959.3
02 14.07 29 км н/о +12.3 +11.9 97 1016.3 959.0
03 14.07 З 1 28 км {дождь} н/о +12.3 +11.7 96 +12 +12 1016.3 959.0
04 14.07 30 км н/о +12.5 +11.8 95 1016.5 959.2
05 14.07 35 км н/о +13.0 +11.8 92 1016.5 959.3
06 14.07 нст 1 15 км 10/10 270 м
[Sc]
+13.5 +12.4 93 +14 +14 1016.4 959.3 +12.0 2
07 14.07 С 3 20 км 10/10 240 м
[Sc]
+13.9 +12.0 88 +13 +13 1016.6 959.6
08 14.07 С 3 20 км 9/9 330 м
[Sc]
+14.2 +11.6 84 +13 +14 1017.0 960.0
09 14.07 СЗ 3 30 км 10/9 330 м
[Sc]
+14.8 +11.3 80 +14 +15 1017.0 960.1
10 14.07 С 3 40 км 10/10 450 м
[Sc]
+15.5 +11.5 77 +15 +15 1016.7 960.0
11 14.07 СЗ 3 30 км 9/9 480 м
[Sc]
+16.0 +11.7 76 +16 +17 1016.6 960.0
12 14.07 СЗ 4 25 км 8/8 570 м
[Cu med, cong]
+16.9 +11.6 71 +16 +19 1016.3 959.9
13 14.07 СЗ 4 17 км 8/6 540 м
[Cu med, cong Ci sp]
+16.8 +11.0 69 +16 +20 1016.2 959.8
14 14.07 С 4 17 км 6/6 540 м
[Cu med, cong Ci fib]
+16.4 +10.9 70 +16 +19 1016.4 959.9
15 14.07 С 4 22 км 6/6 600 м
[Cu med, cong]
+16.5 +10.8 69 +16 +18 1016.2 959.7
16 14.07 С 4 22 км н/о +16.4 +11.1 71 +16 +16 1016.1 959.6
17 14.07 С 3 22 км н/о +16.5 +11.2 71 +16 +16 1016.2 959.7
18 14.07 С 3 15 км 3/3 900 м
[Sc diur, vesp]
+15.5 +10.7 73 +15 +15 1016.5 959.8 +18.2
19 14.07 С 2 13 км 1/1 870 м
[Sc diur, vesp]
+14.4 +10.9 79 +14 +14 1016.9 960.0
20 14.07 С 2 10 км ясно +12.6 +10.8 89 +12 +12 1017.7 960.4
21 14.07 С 1 6000 м дымка н/о +12.2 +10.8 91 +12 +12 1017.8 960.4
22 14.07 5000 м дымка н/о +12.1 +10.8 92 1017.8 960.4
23 14.07 7000 м дымка н/о +12.1 +10.9 92 1017.7 960.3
00 15.07 нст 1 7000 м дымка н/о +12.1 +10.8 92 +12 +12 1017.6 960.2
01 15.07 штиль 0 3300 м дымка н/о +11.5 +10.8 95 +11 +11 1017.5 960.0
02 15.07 Ю 1 4200 м дымка н/о +10.9 +10.4 97 +10 +10 1017.5 959.8
03 15.07 ЮЗ 1 2300 м дымка н/о +10.8 +10.5 98 +10 +10 1017.4 959.7
04 15.07 Ю 1 4200 м дымка н/о +11.0 +10.5 97 +11 +11 1017.4 959.8
05 15.07 4300 м дымка н/о +11.8 +11.4 97 1017.5 960.0
06 15.07 нст 1 7000 м дымка 9/9 240 м
[Sc]
+12.8 +11.2 90 +13 +13 1017.7 960.4 +10.6
07 15.07 15 км 9/9 270 м
[Cu Sc]
+14.2 +11.2 82 1017.4 960.4
08 15.07 20 км 5/5 480 м
[Cu med, cong]
+17.8 +11.4 66 1016.6 960.3
09 15.07 нст 1 23 км 6/6 660 м
[Cu med, cong]
+18.9 +11.8 63 +21 +27 комфорт 1016.2 960.2
10 15.07 25 км 6/6 870 м
[Cu med, cong]
+18.9 +11.3 61 1016.0 960.0
11 15.07 35 км 4/4 1500 м
[Cu med, cong]
+20.4 +11.1 55 1015.4 959.7
12 15.07 нст 2 40 км 4/4 1300 м
[Cu med, cong]
+21.6 +10.7 50 +23 +33 комфорт 1014.9 959.4
13 15.07 40 км 4/4 1410 м
[Cu med, cong]
+21.6 +9.4 46 1014.4 958.9
14 15.07 40 км 3/3 1410 м
[Cu med, cong]
+22.5 +10.9 48 1014.1 958.8
15 15.07 СЗ 3 40 км 3/3 1440 м
[Cu med, cong Ci fib]
+22.0 +9.7 46 +24 +28 комфорт 1014.2 958.8
16 15.07 С 4 35 км н/о +21.2 +10.1 49 +23 +23 комфорт 1014.1 958.6
17 15.07 С 3 35 км н/о +20.2 +10.1 52 +22 +22 комфорт 1014.3 958.6
18 15.07 С 3 30 км 1/1 1200 м
[Cu med, cong]
+18.9 +10.1 57 +20 +20 1014.8 958.8 +23.3
19 15.07 С 2 25 км 1/0
[Ci fib]
+17.0 +10.1 64 +17 +17 1015.5 959.1
20 15.07 С 2 25 км 1/0
[Ci fib]
+15.1 +10.2 73 +15 +15 1016.3 959.5
21 15.07 нст 2 35 км {дымка} н/о +14.4 +10.1 75 +14 +14 1016.8 959.9
22 15.07 35 км н/о +13.1 +9.6 79 1017.5 960.3
23 15.07 35 км н/о +11.7 +9.2 85 1017.8 960.3
00 16.07 нст 1 24 км {дымка} н/о +10.3 +8.9 91 +10 +10 1018.2 960.4
01 16.07 штиль 0 18 км н/о +10.0 +9.2 95 +9 +9 1018.1 960.2
02 16.07 штиль 0 17 км н/о +10.9 +9.5 91 +10 +10 1017.6 959.9
03 16.07 штиль 0 20 км {дымка} н/о +11.2 +9.5 89 +11 +11 1017.3 959.7
04 16.07 В 1 21 км н/о +11.4 +9.8 90 +11 +11 1017.3 959.7
05 16.07 нст 1 20 км {дымка} н/о +11.9 +9.5 85 +12 +12 1017.3 959.8
06 16.07 СЗ 3 25 км 8/8 450 м
[Sc]
+12.0 +7.7 75 +10 +11 1017.5 960.0 +9.7
07 16.07 СЗ 3 30 км 5/5 600 м
[Sc]
+13.9 +7.2 64 +13 +16 1017.0 959.9
08 16.07 СЗ 3 35 км 4/4 750 м
[Sc]
+14.3 +7.6 64 +13 +19 1016.8 959.8
09 16.07 СЗ 3 35 км 4/4 800 м
[Sc]
+16.1 +8.1 59 +16 +23 1016.4 959.8
10 16.07 СЗ 3 35 км 3/3 900 м
[Sc]
+18.0 +9.2 56 +18 +27 1015.8 959.6
11 16.07 40 км 3/3 1050 м
[Sc]
+19.4 +9.4 52 1015.3 959.4
12 16.07 СЗ 2 40 км 4/4 1200 м
[Sc]
+19.8 +9.7 52 +22 +31 комфорт 1014.8 959.0
13 16.07 40 км 4/4 1300 м
[Sc]
+20.1 +9.2 49 1014.8 959.0
14 16.07 СЗ 3 45 км 4/4 1500 м
[Sc]
+21.9 +9.2 44 +23 +29 комфорт 1014.1 958.7
15 16.07 СЗ 3 45 км 3/3 1500 м
[Sc]
+22.7 +9.3 42 +24 +29 комфорт 1013.8 958.5
16 16.07 СЗ 3 35 км н/о +22.5 +9.0 42 +24 +24 комфорт 1013.6 958.3
17 16.07 С 4 35 км н/о +20.3 +9.6 50 +22 +22 комфорт 1014.1 958.4
18 16.07 С 3 50 км 1/0
[Ci fib]
+19.2 +9.0 52 +20 +21 1014.6 958.7 +23.8
19 16.07 45 км 3/0
[Ci fib]
+17.1 +9.2 60 1015.3 958.9
20 16.07 40 км 3/0
[Ci fib]
+16.0 +9.7 66 1016.0 959.4
21 16.07 С 2 35 км {дымка} н/о +14.4 +9.8 74 +14 +14 1016.4 959.5
22 16.07 С 2 35 км н/о +13.5 +10.0 79 +13 +13 1016.8 959.7
23 16.07 штиль 0 35 км 6/0
[Ci fib]
+12.5 +10.1 85 +12 +12 1017.2 959.9
00 17.07 нст 2 35 км {дымка} н/о +12.4 +10.2 86 +11 +11 1017.3 959.9
01 17.07 35 км н/о +12.4 +10.2 86 1017.0 959.7
03 17.07 нст 1 35 км {дымка} н/о +12.6 +9.8 83 +13 +13 1016.5 959.2
04 17.07 21 км н/о +12.7 +9.9 83 1016.2 959.0
05 17.07 35 км н/о +13.2 +9.8 80 1015.9 958.8
06 17.07 нст 1 25 км 9/9 420 м
[Sc]
+13.5 +9.7 78 +14 +14 1015.8 958.7 +11.5
08 17.07 30 км 8/8 540 м
[Sc]
+15.3 +10.0 71 1015.4 958.7
09 17.07 35 км 8/4 660 м
[Sc Ci]
+18.4 +11.1 62 1014.4 958.4
10 17.07 40 км 6/3 900 м
[Sc Ci sp]
+18.6 +10.6 60 1014.2 958.2

 

Местоположение метеостанции Хеб (Чехия): широта 50.08 долгота 12.40 высота над уровнем моря 490 м.

В архиве по умолчанию представлена погода в Хебе за последнюю неделю. Архивные данные за месяц целиком и за предыдущие месяцы, начиная с января 2011 года, Вы можете получить, выбрав интересующий диапазон дат из раскрывающегося списка и нажав кнопку "Ввод!".


*Определитесь, кто Вы:
робот инопланетянин человек

Внимание! Время в таблицах - всемирное. Для получения местного времени необходимо прибавить поправку, которая равна 1 ч.

Смотрите также архив погоды в соседних городах и на ближайших метеорологических станциях:

Погода в Шёнбрунне (Германия) (31 км)
Погода в Карловых Варах (Чехия) (39 км)
Погода в Карлсфельде (Германия) (42 км)
Погода в Хофе (Германия) (46 км)
Погода в Вайден-ин-дер-Оберпфальце (Германия) (48 км)
Погода в Плауэне (Германия) (48 км)
Погода в Пршимде (Чехия) (50 км)
Погода на Фихтельберге (Германия) (55 км)
Погода в Шлайце (Германия) (68 км)
Погода в Тушимице (Чехия) (74 км)

Пояснения к столбцам:

Ветер - указаны скорость ветра в м/с - средняя за 10 мин, порывы в срок и между сроками (в фигурных скобках) и направление, откуда дует ветер: С - северный, СВ - северо-восточный, В - восточный, ЮВ - юго-восточный, Ю - южный, ЮЗ - юго-западный, З - западный, СЗ - северо-западный.
Видимость - горизонтальная дальность видимости в метрах или километрах. При видимости от 1 до 10 км при отсутствии осадков обычно наблюдается дымка, при ухудшении видимости до 1 км и менее - туман. В сухую погоду видимость может ухудшаться дымом, пылью или мглою.
Явления - указаны атмосферные явления, наблюдавшиеся в срок или в последний час перед сроком; фигурными скобками обозначены явления, наблюдавшиеся между сроками (за 1-3 часа до срока); квадратными скобками обозначены град или гололедные отложения с указанием их диаметра в мм.
Облачность - указаны через наклонную черту общая и нижняя облачность в баллах и высота нижней границы облаков в метрах; квадратными скобками обозначены формы облаков: Ci - перистые, Cs - перисто-слоистые, Cc - перисто-кучевые, Ac - высококучевые, As - высокослоистые, Sc - слоисто-кучевые, Ns - слоисто-дождевые, Cu - кучевые, Cb - кучево-дождевые. Подробнее классификацию облаков см. в Атласе облаков (PDF).
T - Температура воздуха - температура, измеренная на высоте 2 м над землей.
Td - Температура точки росы - температура, при понижении до которой содержащийся в воздухе водяной пар достигнет насыщения.
f - Относительная влажность воздуха - влажноcть воздуха, измеренная на высоте 2 м над землей.
Te - Эффективная температура - температура, которую ощущает одетый по сезону человек в тени. Характеристика душности погоды. При расчете учитывается влияние влажности воздуха и скорости ветра на теплоощущения человека.
Tes - Эффективная температура на солнце - температура, которую ощущает человек, с поправкой на солнечный нагрев. Характеристика знойности погоды. Зависит от высоты солнца над горизонтом, облачности и скорости ветра. Ночью, в пасмурную погоду, а также при ветре 12 м/с и более поправка равна нулю.
P - Атмосферное давление - приведенное к уровню моря атмосферное давление.
Po - Атмосферное давление - измеренное на уровне метеостанции атмосферное давление.
Tmin - Минимальная температура - минимум температуры воздуха на высоте 2 м над землей.
Tmax - Максимальная температура - максимум температуры воздуха на высоте 2 м над землей.
R - Количество осадков - Количество выпавших осадков за период времени, мм. При наведении курсора мыши на число - период времени, за который выпало указанное количество осадков.
R24 - Количество осадков - Количество выпавших осадков за 24 часа, мм.
S - Снежный покров - Высота снежного покрова, см. При наведении курсора мыши на число - состояние снежного покрова и степень покрытия местности в баллах.